CW6899 Weather Reports


time (UTC)temp
C
wind
direction
speed
KPH
gust
KPH
rain 1hr
cm
rain 24hr
cm
rain mn
cm
humidity
%
barometer
mb
20260510115907 5 138 1.6 3.2 0.00 0.18 0.03 69 1009.1
20260510114906 6 61 1.6 8.0 0.00 0.18 0.03 71 1008.7
20260510113906 6 97 0.0 3.2 0.00 0.18 0.03 70 1008.7
20260510111906 6 100 3.2 4.8 0.00 0.18 0.03 69 1008.5
20260510110906 6 103 1.6 4.8 0.00 0.18 0.03 70 1008.4
20260510105906 6 95 3.2 3.2 0.00 0.18 0.03 69 1008.4
20260510104906 6 86 3.2 3.2 0.00 0.18 0.03 69 1008.2
20260510103905 6 76 3.2 3.2 0.00 0.18 0.03 71 1008.1
20260510102905 6 67 1.6 3.2 0.00 0.18 0.03 70 1008.1
20260510101906 6 91 1.6 4.8 0.00 0.18 0.03 71 1007.9
20260510100906 6 81 3.2 4.8 0.00 0.18 0.03 71 1007.8
20260510095906 7 90 3.2 8.0 0.00 0.18 0.03 67 1007.6
20260510094906 6 110 1.6 8.0 0.00 0.18 0.03 70 1007.3
20260510093907 6 87 3.2 4.8 0.00 0.18 0.03 70 1007.1
20260510092906 6 87 3.2 4.8 0.00 0.18 0.03 70 1006.3
20260510091906 6 74 1.6 4.8 0.00 0.18 0.03 69 1006.2
20260510085906 6 83 3.2 3.2 0.00 0.18 0.03 68 1006.0
20260510084904 6 71 1.6 8.0 0.00 0.18 0.03 68 1005.8
20260510083905 6 73 3.2 8.0 0.00 0.18 0.03 67 1005.5
20260510082905 6 79 3.2 4.8 0.00 0.18 0.03 71 1004.9
20260510080907 6 97 3.2 3.2 0.00 0.18 0.03 73 1004.5
20260510075906 6 113 3.2 4.8 0.00 0.18 0.03 75 1004.2
20260510074905 6 94 1.6 3.2 0.00 0.18 0.03 74 1003.8
20260510072907 7 83 3.2 3.2 0.00 0.18 0.03 74 1003.4
20260510071906 7 86 1.6 3.2 0.00 0.18 0.03 74 1003.7
20260510070907 6 83 3.2 3.2 0.00 0.18 0.03 75 1003.5
20260510065905 6 118 3.2 3.2 0.00 0.18 0.03 75 1003.3
20260510064907 6 91 1.6 4.8 0.00 0.18 0.03 75 1003.1
20260510063905 6 73 1.6 4.8 0.00 0.18 0.03 74 1002.8
20260510062906 7 93 1.6 3.2 0.00 0.18 0.03 72 1002.7
20260510061906 7 112 1.6 3.2 0.00 0.18 0.03 71 1002.3
20260510060905 7 83 3.2 3.2 0.00 0.18 0.03 71 1002.2
20260510055906 7 80 1.6 3.2 0.00 0.18 0.03 70 1001.9
20260510054907 7 71 1.6 3.2 0.00 0.18 0.03 68 1001.7
20260510053912 7 82 1.6 3.2 0.00 0.18 0.03 68 1001.1
20260510051906 7 94 3.2 8.0 0.00 0.18 0.03 66 1000.8
20260510050907 7 73 1.6 3.2 0.00 0.18 0.03 67 1000.5
20260510044906 8 85 1.6 3.2 0.00 0.18 0.03 66 999.8
20260510042905 8 94 3.2 4.8 0.00 0.18 0.03 64 999.1
20260510041905 9 90 1.6 4.8 0.00 0.18 0.03 64 998.8
20260510040906 10 142 1.6 3.2 0.00 0.18 0.03 61 998.6
20260510034906 11 95 1.6 3.2 0.00 0.18 0.03 57 998.3
20260510033907 11 134 1.6 4.8 0.00 0.18 0.03 57 998.0
20260510031906 12 99 1.6 4.8 0.00 0.18 0.03 57 997.5
20260510030906 11 95 3.2 4.8 0.00 0.18 0.03 56 997.1
20260510025907 11 108 3.2 4.8 0.00 0.18 0.03 57 997.0
20260510024906 11 112 1.6 3.2 0.00 0.18 0.03 56 996.7
20260510023906 11 127 1.6 3.2 0.00 0.18 0.03 59 996.6
20260510022905 11 111 1.6 3.2 0.00 0.18 0.03 62 996.6
20260510021906 11 119 1.6 4.8 0.00 0.18 0.03 61 996.4
20260510015909 11 122 1.6 3.2 0.00 0.18 0.03 61 996.5
20260510014905 11 74 3.2 3.2 0.00 0.18 0.03 64 996.2
20260510013905 10 116 1.6 4.8 0.00 0.18 0.03 66 995.9
20260510011906 11 157 4.8 4.8 0.00 0.18 0.03 64 995.2
20260510010906 11 113 3.2 3.2 0.00 0.18 0.03 64 995.1
20260510004906 11 111 1.6 4.8 0.00 0.18 0.03 69 995.0
20260510003905 11 70 1.6 3.2 0.00 0.18 0.03 71 994.6
20260510002907 11 98 1.6 3.2 0.00 0.18 0.03 73 994.6
20260510001905 10 104 1.6 3.2 0.00 0.18 0.03 72 994.8
20260510000905 10 113 1.6 3.2 0.00 0.18 0.03 70 994.8
20260509235907 10 101 3.2 3.2 0.00 0.18 0.03 73 994.8
20260509232905 10 98 1.6 3.2 0.00 0.18 0.03 71 994.7
20260509231907 10 92 1.6 3.2 0.00 0.18 0.03 71 994.5
20260509224905 10 69 1.6 3.2 0.00 0.20 0.03 74 993.7
20260509223908 10 70 1.6 4.8 0.00 0.20 0.03 72 993.9
20260509222906 10 87 1.6 3.2 0.00 0.20 0.03 72 993.9
20260509221906 10 66 1.6 3.2 0.00 0.20 0.03 74 994.2
20260509220906 9 101 1.6 4.8 0.00 0.20 0.03 76 994.2
20260509215905 9 75 1.6 3.2 0.00 0.20 0.03 77 993.7
20260509214905 9 94 1.6 3.2 0.00 0.18 0.00 78 993.8
20260509213907 9 109 3.2 4.8 0.00 0.18 0.00 78 993.5
20260509212906 9 92 3.2 3.2 0.00 0.18 0.00 80 993.5
20260509211906 8 95 1.6 3.2 0.00 0.18 0.00 83 993.2
20260509210905 8 85 3.2 3.2 0.00 0.18 0.00 83 992.9
20260509205905 8 108 1.6 3.2 0.00 0.18 0.00 85 992.5
20260509204906 8 105 1.6 3.2 0.00 0.18 0.00 86 992.4
20260509203905 9 91 1.6 4.8 0.00 0.18 0.00 84 992.0
20260509202906 9 124 1.6 3.2 0.00 0.18 0.00 81 991.6
20260509201905 9 109 1.6 3.2 0.00 0.18 0.00 82 991.1
20260509200906 9 70 3.2 3.2 0.00 0.18 0.00 84 991.0
20260509200724 9 70 3.2 0.0 0.00 0.18 0.00 84 991.0
20260509200715 9 70 3.2 3.2 0.00 0.18 0.00 84 991.0
20260509194905 9 104 1.6 3.2 0.00 0.18 0.00 84 990.6
20260509193906 10 93 1.6 3.2 0.00 0.18 0.00 85 990.3
20260509192906 10 76 3.2 3.2 0.00 0.18 0.00 87 990.1
20260509191906 10 143 1.6 3.2 0.00 0.20 0.00 89 990.3
20260509190906 10 117 3.2 4.8 0.00 0.20 0.00 89 990.1
20260509185905 10 120 1.6 3.2 0.00 0.20 0.00 89 989.8
20260509184905 10 122 3.2 3.2 0.00 0.20 0.00 96 989.7
20260509183905 9 92 1.6 3.2 0.00 0.20 0.00 99 989.6
20260509182905 9 86 1.6 3.2 0.00 0.20 0.00 99 989.7
20260509181905 9 72 1.6 3.2 0.00 0.20 0.00 99 989.4
20260509180906 9 86 3.2 3.2 0.00 0.20 0.00 99 989.5
20260509174906 9 73 1.6 3.2 0.00 0.20 0.00 99 989.1
20260509173905 9 95 1.6 4.8 0.00 0.20 0.00 99 988.5
20260509165905 8 69 3.2 3.2 0.00 0.23 0.00 99 987.5
20260509164905 8 71 1.6 3.2 0.00 0.23 0.00 99 987.6
20260509163905 8 73 3.2 3.2 0.00 0.23 0.00 98 987.6
20260509162905 8 86 1.6 4.8 0.00 0.25 0.00 98 987.5
20260509160906 8 80 3.2 3.2 0.00 0.28 0.00 98 987.0
20260509155906 8 70 3.2 3.2 0.00 0.33 0.00 98 987.0
20260509154906 8 68 3.2 3.2 0.00 0.33 0.00 98 987.2
20260509152906 9 82 1.6 3.2 0.00 0.33 0.00 97 986.9
20260509151906 9 78 3.2 3.2 0.00 0.33 0.00 97 987.1
20260509145905 10 63 3.2 3.2 0.00 0.33 0.00 96 987.3
20260509143906 10 77 3.2 3.2 0.00 0.33 0.00 97 987.2
20260509142906 10 69 1.6 3.2 0.00 0.33 0.00 97 987.4
20260509141907 10 61 1.6 3.2 0.00 0.33 0.00 97 987.6
20260509140905 10 65 3.2 3.2 0.00 0.33 0.00 97 987.7
20260509135906 10 92 1.6 3.2 0.00 0.33 0.00 97 987.8
20260509133905 10 84 1.6 3.2 0.00 0.33 0.00 99 988.1
20260509132907 10 70 1.6 3.2 0.00 0.33 0.00 99 987.8
20260509131906 10 91 1.6 3.2 0.00 0.33 0.00 99 987.7
20260509130907 10 102 1.6 3.2 0.00 0.33 0.00 99 987.7
20260509125906 10 86 1.6 3.2 0.18 0.33 0.00 99 987.6
20260509124906 10 79 1.6 3.2 0.18 0.33 0.00 99 987.5
20260509123906 10 67 1.6 3.2 0.18 0.33 0.00 99 987.6
20260509122906 10 80 1.6 3.2 0.18 0.33 0.00 99 987.7
20260509121906 10 72 3.2 3.2 0.18 0.33 0.00 99 987.4
20260509120905 10 84 1.6 3.2 0.18 0.33 0.00 99 987.4